Regional Weather Roundup
Issued by NWS Glasgow, MT

Home | Current Version | Previous Version | Text Only | Print | Product List | Glossary On
Versions: 1 2 3 4 5 6 7 8 9 10 11 12 13 14 15 16 17 18 19 20 21 22 23 24 25 26 27
000
ASUS45 KGGW 281515
RWRGGW
HOURLY REGIONAL WEATHER ROUNDUP FOR NORTHEAST MONTANA
NATIONAL WEATHER SERVICE GLASGOW MONTANA
900 AM MDT SAT MAY 28 2016

NOTE: "FAIR" INDICATES FEW OR NO CLOUDS BELOW 12,000 FEET WITH NO
SIGNIFICANT WEATHER AND/OR OBSTRUCTIONS TO VISISBILITY.

NORTHEAST MONTANA


CITY           SKY/WX    TMP DP  RH WIND       PRES   REMARKS
GLASGOW        CLOUDY    53  51  93 W12       29.89R
PLENTYWOOD       N/A     54  51  90 E10         N/A
WOLF POINT     CLOUDY    60  53  77 CALM      29.88R
JORDAN           N/A     54  50  86 NW13      29.91S
WINNETT          N/A     56  34  43 W7G18       N/A
SIDNEY         CLOUDY    63  54  72 E7        29.88S
GLENDIVE       SUNNY     61  52  72 CALM      29.90S
SCOBEY           N/A     54  49  83 E10       29.89R HAZE
OPHEIM           N/A     50  50 100 SE6       29.72R

FORT PECK REPORTS


CITY           SKY/WX    TMP DP  RH WIND       PRES   REMARKS
FORT PECK        N/A     55  55 100 W9          N/A
THE PINES        N/A     51  48  89 NW6G14      N/A

SOUTHEAST MONTANA


CITY           SKY/WX    TMP DP  RH WIND       PRES   REMARKS
BILLINGS       CLOUDY    53  41  63 NW7       29.99R
MILES CITY     CLOUDY    55  49  80 W14       29.92R
BAKER          PTSUNNY   63  48  58 SW9       29.90R
LIVINGSTON     CLOUDY    50  38  63 NW6       30.01S

CENTRAL MONTANA


CITY           SKY/WX    TMP DP  RH WIND       PRES   REMARKS
HAVRE          SUNNY     55  41  59 SW13      29.92S
LEWISTOWN      MOSUNNY   52  39  61 W7        29.98R
GREAT FALLS    SUNNY     52  32  46 SW18      29.98R
CUT BANK       MOSUNNY   50  33  52 W12G20    29.94S
HELENA         SUNNY     52  35  52 N5        30.02S
BUTTE          CLOUDY    42  35  76 CALM      30.05R
BOZEMAN        CLOUDY    48  43  82 CALM      30.04R

WESTERN MONTANA


CITY           SKY/WX    TMP DP  RH WIND       PRES   REMARKS
MISSOULA       MOSUNNY   45  36  70 E5        30.07S
KALISPELL      NOT AVBL

NORTH DAKOTA


CITY           SKY/WX    TMP DP  RH WIND       PRES   REMARKS
WILLISTON      CLOUDY    58  52  80 E8        29.89S
DICKINSON      SUNNY     59  49  69 E3        29.87S
MINOT          CLOUDY    59  53  80 NE8       29.90R
BISMARCK       CLOUDY    62  55  77 NE6       29.89R

SOUTHERN SASKATCHEWAN


CITY           SKY/WX    TMP DP  RH WIND       PRES   REMARKS
REGINA         CLOUDY    54  48  82 E10G17    29.93S
ESTEVAN        CLOUDY    52  50  93 E10       29.92S
SWIFT CURRENT  LGT RAIN  48  46  93 W17G24    29.87R





USA.gov is the U.S. government's official web portal to all federal, state and local government web resources and services.